JBU3212 KJFK-KFLL

Flight info

Callsign JBU3212
Flight time 1h 50m
Altitude 34000
Route WAVEY EMJAY Q167 ZJAAY KALDA Q161 CHIEZ Y291 MAJIK CUUDA3
Aircraft A321/M-SDE3FGHIRWY/LB1

Departure

Time 2026-05-08 03:16
Airport John F. Kennedy International Airport (KJFK)

Arrival

Time 2026-05-08 05:07
Airport Fort Lauderdale Hollywood International Airport (KFLL)
Time Latitude Longitude Altitude Speed Heading
2026-05-08 02:45 40.64537 -73.77434 21 ft 0 kts 358°
2026-05-08 03:08 40.64536 -73.77434 20 ft 0 kts 358°
2026-05-08 03:09 40.64532 -73.77433 20 ft 0 kts 358°
2026-05-08 03:10 40.64526 -73.77433 22 ft 3 kts 358°
2026-05-08 03:10 40.64507 -73.77429 22 ft 3 kts 330°
2026-05-08 03:10 40.64493 -73.77414 23 ft 3 kts 310°
2026-05-08 03:11 40.64483 -73.77399 21 ft 3 kts 297°
2026-05-08 03:11 40.64477 -73.77376 22 ft 3 kts 271°
2026-05-08 03:11 40.64477 -73.77370 21 ft 0 kts 265°
2026-05-08 03:13 40.64476 -73.77373 22 ft 1 kts 265°
2026-05-08 03:13 40.64469 -73.77420 20 ft 12 kts 251°
2026-05-08 03:13 40.64379 -73.77511 20 ft 20 kts 213°
2026-05-08 03:13 40.64246 -73.77592 20 ft 21 kts 172°
2026-05-08 03:14 40.64121 -73.77502 20 ft 21 kts 140°
2026-05-08 03:14 40.64031 -73.77359 20 ft 17 kts 122°
2026-05-08 03:14 40.64062 -73.77273 21 ft 10 kts 33°
2026-05-08 03:14 40.64137 -73.77218 21 ft 16 kts 33°
2026-05-08 03:15 40.64250 -73.77128 21 ft 22 kts 33°
2026-05-08 03:15 40.64393 -73.77005 20 ft 22 kts 46°
2026-05-08 03:15 40.64344 -73.76881 20 ft 17 kts 185°
2026-05-08 03:15 40.64204 -73.76993 22 ft 47 kts 213°
2026-05-08 03:16 40.63723 -73.77372 21 ft 112 kts 211°
2026-05-08 03:16 40.62892 -73.78024 26 ft 163 kts 211°
2026-05-08 03:16 40.61877 -73.78830 402 ft 177 kts 211°
2026-05-08 03:16 40.60790 -73.79701 1079 ft 181 kts 212°
2026-05-08 03:17 40.59672 -73.80540 1569 ft 194 kts 200°
2026-05-08 03:17 40.58295 -73.80640 1734 ft 214 kts 162°
2026-05-08 03:17 40.57006 -73.79545 1864 ft 234 kts 137°
2026-05-08 03:17 40.55739 -73.78027 2143 ft 255 kts 136°
2026-05-08 03:18 40.54417 -73.76419 2784 ft 261 kts 136°
2026-05-08 03:18 40.53081 -73.74787 3480 ft 264 kts 136°
2026-05-08 03:18 40.51723 -73.73130 4174 ft 268 kts 137°
2026-05-08 03:18 40.50342 -73.71459 4886 ft 271 kts 139°
2026-05-08 03:19 40.48940 -73.69774 5539 ft 275 kts 139°
2026-05-08 03:19 40.47511 -73.68061 6205 ft 280 kts 140°
2026-05-08 03:19 40.46058 -73.66322 6819 ft 285 kts 140°
2026-05-08 03:19 40.44577 -73.64552 7439 ft 290 kts 140°
2026-05-08 03:20 40.43077 -73.62759 8065 ft 294 kts 140°
2026-05-08 03:20 40.41549 -73.60934 8697 ft 299 kts 140°
2026-05-08 03:20 40.39996 -73.59086 9326 ft 303 kts 141°
2026-05-08 03:20 40.38420 -73.57215 9938 ft 308 kts 141°
2026-05-08 03:21 40.36805 -73.55300 10256 ft 323 kts 141°
2026-05-08 03:21 40.35082 -73.53261 10389 ft 344 kts 141°
2026-05-08 03:21 40.33258 -73.51096 10524 ft 363 kts 141°
2026-05-08 03:21 40.31357 -73.48837 10912 ft 372 kts 141°
2026-05-08 03:22 40.29431 -73.46544 11480 ft 376 kts 142°
2026-05-08 03:22 40.27490 -73.44235 12055 ft 379 kts 143°
2026-05-08 03:22 40.25532 -73.41910 12639 ft 382 kts 143°
2026-05-08 03:22 40.23545 -73.39583 13222 ft 384 kts 147°
2026-05-08 03:23 40.21407 -73.37506 13800 ft 383 kts 152°
2026-05-08 03:23 40.19236 -73.35471 14340 ft 385 kts 152°
2026-05-08 03:23 40.17044 -73.33424 14888 ft 387 kts 152°
2026-05-08 03:23 40.14845 -73.31484 15404 ft 384 kts 160°
2026-05-08 03:24 40.12416 -73.30196 15931 ft 372 kts 174°
2026-05-08 03:24 40.09905 -73.29759 16461 ft 360 kts 188°
2026-05-08 03:24 40.07459 -73.30139 17002 ft 350 kts 201°
2026-05-08 03:24 40.05211 -73.31226 17538 ft 343 kts 213°
2026-05-08 03:25 40.03244 -73.32934 18067 ft 338 kts 224°
2026-05-08 03:25 40.01462 -73.34946 18547 ft 339 kts 225°
2026-05-08 03:25 39.99673 -73.36964 18995 ft 342 kts 225°
2026-05-08 03:25 39.97865 -73.38992 19479 ft 344 kts 225°
2026-05-08 03:26 39.96049 -73.41028 19938 ft 345 kts 225°
2026-05-08 03:26 39.94222 -73.43073 20406 ft 347 kts 225°
2026-05-08 03:26 39.92380 -73.45130 20863 ft 349 kts 225°
2026-05-08 03:26 39.90531 -73.47188 21298 ft 351 kts 225°
2026-05-08 03:27 39.88667 -73.49262 21715 ft 353 kts 225°
2026-05-08 03:27 39.86794 -73.51344 22136 ft 355 kts 225°
2026-05-08 03:27 39.84909 -73.53435 22553 ft 357 kts 225°
2026-05-08 03:27 39.83020 -73.55532 22964 ft 358 kts 226°
2026-05-08 03:28 39.81121 -73.57643 23370 ft 360 kts 226°
2026-05-08 03:28 39.79211 -73.59766 23719 ft 362 kts 226°
2026-05-08 03:28 39.77295 -73.61896 24054 ft 363 kts 226°
2026-05-08 03:28 39.75371 -73.64038 24390 ft 365 kts 226°
2026-05-08 03:29 39.73444 -73.66183 24719 ft 366 kts 226°
2026-05-08 03:29 39.71502 -73.68343 25055 ft 367 kts 226°
2026-05-08 03:29 39.69557 -73.70501 25382 ft 369 kts 226°
2026-05-08 03:29 39.67605 -73.72663 25694 ft 370 kts 227°
2026-05-08 03:30 39.63679 -73.77013 26331 ft 373 kts 227°
2026-05-08 03:30 39.59720 -73.81388 26940 ft 375 kts 227°
2026-05-08 03:31 39.55720 -73.85790 27528 ft 378 kts 227°
2026-05-08 03:31 39.51706 -73.90212 28109 ft 380 kts 227°
2026-05-08 03:32 39.49683 -73.92440 28393 ft 382 kts 227°
2026-05-08 03:32 39.47655 -73.94670 28673 ft 383 kts 227°
2026-05-08 03:32 39.45620 -73.96906 28968 ft 385 kts 228°
2026-05-08 03:32 39.43572 -73.99156 29237 ft 386 kts 228°
2026-05-08 03:33 39.41525 -74.01400 29576 ft 386 kts 228°
2026-05-08 03:33 39.39483 -74.03638 29979 ft 384 kts 228°
2026-05-08 03:33 39.37474 -74.05839 30323 ft 382 kts 228°
2026-05-08 03:33 39.35446 -74.08054 30634 ft 381 kts 228°
2026-05-08 03:34 39.33425 -74.10256 30964 ft 380 kts 229°
2026-05-08 03:34 39.31405 -74.12455 31278 ft 379 kts 229°
2026-05-08 03:34 39.29393 -74.14641 31578 ft 378 kts 229°
2026-05-08 03:34 39.27385 -74.16825 31874 ft 377 kts 229°
2026-05-08 03:35 39.25386 -74.19002 32171 ft 376 kts 229°
2026-05-08 03:35 39.23390 -74.21176 32469 ft 375 kts 229°
2026-05-08 03:35 39.21405 -74.23339 32751 ft 374 kts 229°
2026-05-08 03:35 39.19423 -74.25496 33038 ft 373 kts 230°
2026-05-08 03:36 39.17439 -74.27650 33323 ft 372 kts 230°
2026-05-08 03:36 39.15465 -74.29787 33610 ft 370 kts 230°
2026-05-08 03:36 39.13494 -74.31924 33883 ft 369 kts 230°
2026-05-08 03:36 39.11536 -74.34046 34116 ft 369 kts 230°
2026-05-08 03:37 39.09574 -74.36171 34324 ft 369 kts 230°
2026-05-08 03:37 39.07607 -74.38300 34492 ft 369 kts 230°
2026-05-08 03:37 39.05645 -74.40422 34670 ft 369 kts 230°
2026-05-08 03:37 39.03698 -74.42525 34850 ft 370 kts 230°
2026-05-08 03:38 39.01699 -74.44682 34921 ft 371 kts 230°
2026-05-08 03:38 38.97771 -74.48903 34938 ft 371 kts 230°
2026-05-08 03:39 38.93816 -74.53160 34942 ft 370 kts 230°
2026-05-08 03:39 38.89994 -74.57540 34944 ft 367 kts 232°
2026-05-08 03:40 38.86251 -74.62009 34942 ft 367 kts 232°
2026-05-08 03:40 38.82567 -74.66364 34942 ft 368 kts 232°
2026-05-08 03:41 38.78779 -74.70789 34939 ft 368 kts 232°
2026-05-08 03:41 38.74986 -74.75197 34937 ft 369 kts 231°
2026-05-08 03:42 38.71039 -74.79461 34936 ft 373 kts 229°
2026-05-08 03:42 38.67006 -74.83577 34940 ft 373 kts 229°
2026-05-08 03:43 38.62955 -74.87726 34944 ft 373 kts 229°
2026-05-08 03:43 38.58927 -74.91902 34946 ft 373 kts 230°
2026-05-08 03:44 38.54907 -74.96075 34949 ft 373 kts 230°
2026-05-08 03:44 38.50908 -75.00280 34952 ft 371 kts 231°
2026-05-08 03:45 38.47038 -75.04622 34957 ft 370 kts 231°
2026-05-08 03:45 38.43011 -75.08787 34952 ft 375 kts 228°
2026-05-08 03:46 38.38791 -75.12730 34954 ft 377 kts 227°
2026-05-08 03:46 38.34550 -75.16647 34950 ft 376 kts 227°
2026-05-08 03:47 38.30353 -75.20598 34952 ft 375 kts 228°
2026-05-08 03:47 38.26210 -75.24536 34954 ft 374 kts 228°
2026-05-08 03:48 38.22039 -75.28496 34956 ft 374 kts 228°
2026-05-08 03:48 38.17863 -75.32433 34959 ft 374 kts 228°
2026-05-08 03:49 38.13683 -75.36364 34970 ft 373 kts 228°
2026-05-08 03:49 38.10224 -75.39632 34962 ft 372 kts 229°
2026-05-08 03:50 38.05371 -75.44208 34970 ft 372 kts 229°
2026-05-08 03:50 38.01854 -75.47389 34976 ft 374 kts 227°
2026-05-08 03:51 37.97541 -75.51102 34963 ft 375 kts 226°
2026-05-08 03:51 37.93230 -75.54797 34973 ft 374 kts 227°
2026-05-08 03:52 37.88945 -75.58503 34971 ft 372 kts 227°
2026-05-08 03:52 37.84605 -75.62116 34965 ft 382 kts 221°
2026-05-08 03:52 37.82090 -75.63421 34964 ft 401 kts 211°
2026-05-08 03:53 37.79393 -75.64378 34961 ft 403 kts 211°
2026-05-08 03:53 37.74021 -75.66242 34961 ft 403 kts 211°
2026-05-08 03:54 37.68630 -75.68121 34961 ft 402 kts 211°
2026-05-08 03:54 37.63242 -75.70011 34961 ft 402 kts 211°
2026-05-08 03:55 37.57859 -75.71899 34966 ft 401 kts 212°
2026-05-08 03:55 37.52482 -75.73783 34965 ft 401 kts 212°
2026-05-08 03:56 37.47113 -75.75663 34966 ft 400 kts 212°
2026-05-08 03:56 37.41745 -75.77540 34961 ft 400 kts 212°
2026-05-08 03:57 37.36420 -75.79397 34960 ft 400 kts 212°
2026-05-08 03:57 37.31049 -75.81259 34960 ft 400 kts 212°
2026-05-08 03:58 37.25687 -75.83125 34974 ft 400 kts 212°
2026-05-08 03:58 37.20315 -75.84992 34977 ft 400 kts 212°
2026-05-08 03:59 37.14948 -75.86848 34972 ft 400 kts 212°
2026-05-08 03:59 37.09612 -75.88751 34970 ft 392 kts 216°
2026-05-08 03:59 37.07176 -75.90108 34970 ft 375 kts 224°
2026-05-08 04:00 37.04902 -75.91699 34970 ft 374 kts 224°
2026-05-08 04:00 37.00362 -75.94868 34964 ft 374 kts 224°
2026-05-08 04:01 36.95844 -75.98009 34957 ft 374 kts 224°
2026-05-08 04:01 36.91288 -76.01168 34956 ft 375 kts 224°
2026-05-08 04:02 36.86726 -76.04326 34954 ft 374 kts 224°
2026-05-08 04:02 36.82185 -76.07463 34958 ft 373 kts 224°
2026-05-08 04:03 36.77635 -76.10601 34958 ft 374 kts 224°
2026-05-08 04:03 36.70807 -76.15309 34970 ft 374 kts 224°
2026-05-08 04:04 36.66255 -76.18450 34971 ft 374 kts 224°
2026-05-08 04:04 36.61694 -76.21589 34976 ft 375 kts 224°
2026-05-08 04:05 36.57152 -76.24700 34977 ft 375 kts 224°
2026-05-08 04:05 36.52582 -76.27832 34971 ft 375 kts 224°
2026-05-08 04:06 36.48013 -76.30963 34968 ft 375 kts 223°
2026-05-08 04:06 36.43434 -76.34091 34951 ft 376 kts 223°
2026-05-08 04:07 36.38854 -76.37216 34954 ft 376 kts 223°
2026-05-08 04:07 36.34260 -76.40344 34951 ft 376 kts 223°
2026-05-08 04:08 36.29675 -76.43468 34953 ft 377 kts 223°
2026-05-08 04:08 36.25107 -76.46568 34961 ft 377 kts 223°
2026-05-08 04:09 36.20511 -76.49690 34974 ft 377 kts 223°
2026-05-08 04:09 36.15908 -76.52813 34973 ft 377 kts 223°
2026-05-08 04:10 36.11302 -76.55930 34981 ft 378 kts 223°
2026-05-08 04:10 36.06694 -76.59044 34982 ft 378 kts 223°
2026-05-08 04:11 36.02075 -76.62163 34985 ft 378 kts 223°
2026-05-08 04:11 35.97454 -76.65281 34976 ft 379 kts 223°
2026-05-08 04:12 35.92825 -76.68395 34971 ft 379 kts 223°
2026-05-08 04:12 35.88160 -76.71475 34967 ft 382 kts 221°
2026-05-08 04:13 35.80049 -76.76380 34958 ft 385 kts 220°
2026-05-08 04:13 35.70434 -76.82203 34972 ft 385 kts 220°
2026-05-08 04:14 35.60802 -76.88057 34990 ft 387 kts 220°
2026-05-08 04:14 35.51206 -76.93906 34986 ft 388 kts 220°
2026-05-08 04:15 35.41543 -76.99858 34971 ft 390 kts 220°
2026-05-08 04:15 35.31823 -77.05788 34948 ft 392 kts 219°
2026-05-08 04:16 35.22021 -77.11749 34967 ft 394 kts 219°
2026-05-08 04:16 35.12191 -77.17728 34981 ft 396 kts 219°
2026-05-08 04:17 35.02313 -77.23718 34983 ft 397 kts 219°
2026-05-08 04:17 34.92402 -77.29705 34943 ft 398 kts 219°
2026-05-08 04:18 34.82444 -77.35698 34949 ft 400 kts 218°
2026-05-08 04:18 34.72449 -77.41704 34949 ft 402 kts 218°
2026-05-08 04:19 34.62403 -77.47724 34961 ft 403 kts 218°
2026-05-08 04:19 34.52300 -77.53664 34946 ft 412 kts 212°
2026-05-08 04:20 34.46548 -77.55225 34944 ft 429 kts 202°
2026-05-08 04:20 34.40661 -77.56500 34933 ft 429 kts 203°
2026-05-08 04:20 34.28974 -77.59089 34930 ft 431 kts 203°
2026-05-08 04:21 34.17159 -77.61694 34936 ft 432 kts 203°
2026-05-08 04:21 34.05312 -77.64285 34936 ft 433 kts 203°
2026-05-08 04:22 33.93438 -77.66892 34941 ft 434 kts 203°
2026-05-08 04:22 33.81558 -77.69487 34938 ft 434 kts 203°
2026-05-08 04:23 33.69649 -77.72075 34940 ft 435 kts 203°
2026-05-08 04:23 33.58163 -77.75700 34936 ft 427 kts 208°
2026-05-08 04:24 33.46710 -77.79442 34942 ft 427 kts 208°
2026-05-08 04:24 33.33753 -77.83655 34940 ft 427 kts 207°
2026-05-08 04:25 33.10820 -77.91098 34925 ft 428 kts 207°
2026-05-08 04:25 32.87914 -77.98807 34933 ft 428 kts 207°
2026-05-08 04:26 32.64931 -78.06650 34954 ft 431 kts 207°
2026-05-08 04:26 32.42009 -78.14410 34959 ft 432 kts 206°
2026-05-08 04:27 32.18887 -78.22210 34965 ft 432 kts 206°
2026-05-08 04:27 31.95738 -78.29980 34951 ft 433 kts 206°
2026-05-08 04:28 31.72458 -78.37728 34977 ft 436 kts 205°
2026-05-08 04:28 31.49067 -78.45492 34983 ft 438 kts 205°
2026-05-08 04:29 31.25509 -78.53113 34992 ft 440 kts 205°
2026-05-08 04:29 31.01916 -78.60710 34987 ft 440 kts 205°
2026-05-08 04:30 30.79530 -78.67906 34993 ft 441 kts 204°
2026-05-08 04:30 30.73602 -78.69796 34990 ft 442 kts 204°
2026-05-08 04:31 30.67705 -78.71670 34993 ft 443 kts 204°
2026-05-08 04:31 30.61758 -78.73565 34992 ft 443 kts 204°
2026-05-08 04:32 30.55800 -78.75472 35002 ft 444 kts 204°
2026-05-08 04:32 30.49841 -78.77370 35000 ft 445 kts 204°
2026-05-08 04:33 30.43870 -78.79263 34999 ft 445 kts 204°
2026-05-08 04:33 30.37905 -78.81156 35005 ft 445 kts 204°
2026-05-08 04:34 30.31931 -78.83055 35005 ft 445 kts 204°
2026-05-08 04:34 30.17672 -78.87562 35002 ft 446 kts 204°
2026-05-08 04:35 29.93686 -78.95124 35009 ft 448 kts 204°
2026-05-08 04:35 29.69320 -79.01284 34996 ft 456 kts 197°
2026-05-08 04:36 29.44183 -79.05935 35014 ft 459 kts 197°
2026-05-08 04:36 29.18896 -79.10580 35025 ft 461 kts 197°
2026-05-08 04:37 28.93476 -79.15224 35032 ft 463 kts 197°
2026-05-08 04:37 28.67952 -79.19858 35031 ft 464 kts 196°
2026-05-08 04:38 28.42433 -79.24460 35038 ft 465 kts 196°
2026-05-08 04:38 28.21464 -79.29842 35035 ft 458 kts 203°
2026-05-08 04:39 28.09209 -79.33812 35040 ft 458 kts 202°
2026-05-08 04:39 27.96955 -79.37764 35036 ft 458 kts 202°
2026-05-08 04:40 27.84642 -79.41737 34724 ft 464 kts 202°
2026-05-08 04:40 27.80539 -79.43059 34425 ft 463 kts 202°
2026-05-08 04:40 27.77448 -79.44051 34200 ft 461 kts 202°
2026-05-08 04:41 27.74362 -79.45042 33798 ft 461 kts 202°
2026-05-08 04:41 27.71289 -79.46033 33292 ft 458 kts 202°
2026-05-08 04:41 27.68232 -79.47018 32773 ft 455 kts 202°
2026-05-08 04:41 27.65194 -79.47993 32268 ft 453 kts 202°
2026-05-08 04:42 27.62173 -79.48960 31752 ft 450 kts 202°
2026-05-08 04:42 27.59206 -79.49910 31248 ft 448 kts 202°
2026-05-08 04:42 27.56175 -79.50882 30718 ft 446 kts 202°
2026-05-08 04:42 27.53204 -79.51835 30211 ft 444 kts 202°
2026-05-08 04:43 27.50232 -79.52787 29643 ft 442 kts 202°
2026-05-08 04:43 27.47292 -79.53726 29152 ft 437 kts 202°
2026-05-08 04:43 27.44417 -79.54645 28656 ft 434 kts 202°
2026-05-08 04:43 27.41522 -79.55571 28164 ft 430 kts 202°
2026-05-08 04:44 27.38658 -79.56485 27639 ft 428 kts 202°
2026-05-08 04:44 27.35808 -79.57387 27190 ft 424 kts 201°
2026-05-08 04:44 27.32968 -79.58280 26687 ft 422 kts 201°
2026-05-08 04:44 27.30160 -79.59161 26262 ft 418 kts 201°
2026-05-08 04:45 27.27362 -79.60040 25810 ft 416 kts 201°
2026-05-08 04:45 27.24592 -79.60911 25375 ft 413 kts 201°
2026-05-08 04:45 27.21830 -79.61778 24957 ft 411 kts 201°
2026-05-08 04:45 27.19082 -79.62641 24550 ft 409 kts 201°
2026-05-08 04:46 27.16351 -79.63503 24163 ft 407 kts 201°
2026-05-08 04:46 27.13636 -79.64371 23781 ft 404 kts 201°
2026-05-08 04:46 27.10944 -79.65237 23345 ft 402 kts 201°
2026-05-08 04:46 27.08262 -79.66100 22889 ft 399 kts 201°
2026-05-08 04:47 27.05593 -79.66957 22443 ft 397 kts 201°
2026-05-08 04:47 27.02951 -79.67803 22010 ft 394 kts 200°
2026-05-08 04:47 27.00320 -79.68643 21574 ft 391 kts 200°
2026-05-08 04:47 26.98588 -79.69196 21288 ft 390 kts 200°
2026-05-08 04:48 26.95992 -79.70025 20857 ft 387 kts 200°
2026-05-08 04:48 26.93415 -79.70848 20429 ft 384 kts 200°
2026-05-08 04:48 26.90851 -79.71666 19993 ft 381 kts 199°
2026-05-08 04:48 26.88308 -79.72475 19566 ft 379 kts 199°
2026-05-08 04:49 26.85783 -79.73280 19153 ft 376 kts 199°
2026-05-08 04:49 26.83270 -79.74080 18741 ft 374 kts 199°
2026-05-08 04:49 26.80777 -79.74871 18328 ft 371 kts 198°
2026-05-08 04:49 26.78294 -79.75657 17856 ft 369 kts 198°
2026-05-08 04:50 26.75830 -79.76437 17378 ft 367 kts 198°
2026-05-08 04:50 26.73386 -79.77211 16728 ft 365 kts 198°
2026-05-08 04:50 26.70951 -79.77979 16260 ft 364 kts 197°
2026-05-08 04:50 26.68530 -79.78791 15799 ft 361 kts 200°
2026-05-08 04:51 26.66162 -79.79707 15352 ft 359 kts 201°
2026-05-08 04:51 26.63845 -79.80673 15121 ft 351 kts 202°
2026-05-08 04:51 26.61580 -79.81637 14790 ft 347 kts 202°
2026-05-08 04:51 26.59332 -79.82592 14397 ft 345 kts 201°
2026-05-08 04:52 26.57093 -79.83530 14003 ft 344 kts 201°
2026-05-08 04:52 26.54883 -79.84450 13593 ft 342 kts 201°
2026-05-08 04:52 26.52709 -79.85422 13319 ft 330 kts 203°
2026-05-08 04:52 26.50581 -79.86424 12746 ft 325 kts 203°
2026-05-08 04:53 26.48549 -79.87403 12035 ft 321 kts 203°
2026-05-08 04:53 26.46509 -79.88386 11309 ft 317 kts 202°
2026-05-08 04:53 26.44479 -79.89355 10898 ft 316 kts 201°
2026-05-08 04:53 26.42472 -79.90304 10434 ft 311 kts 201°
2026-05-08 04:54 26.40489 -79.91239 9943 ft 308 kts 201°
2026-05-08 04:54 26.38527 -79.92171 9366 ft 303 kts 204°
2026-05-08 04:54 26.36689 -79.93314 8609 ft 302 kts 208°
2026-05-08 04:54 26.34898 -79.94474 8149 ft 293 kts 208°
2026-05-08 04:55 26.33118 -79.95618 8019 ft 296 kts 208°
2026-05-08 04:55 26.31337 -79.96759 8004 ft 297 kts 208°
2026-05-08 04:55 26.29541 -79.97909 8014 ft 298 kts 208°
2026-05-08 04:55 26.27744 -79.99060 8016 ft 297 kts 208°
2026-05-08 04:56 26.25952 -80.00208 8016 ft 297 kts 208°
2026-05-08 04:56 26.23405 -80.01839 8021 ft 297 kts 208°
2026-05-08 04:56 26.17701 -80.06787 7977 ft 296 kts 242°
2026-05-08 04:56 26.16336 -80.11046 7998 ft 300 kts 252°
2026-05-08 04:57 26.15121 -80.15484 8000 ft 300 kts 262°
2026-05-08 04:57 26.15054 -80.20132 7877 ft 303 kts 271°
2026-05-08 04:57 26.15074 -80.24766 7530 ft 298 kts 270°
2026-05-08 04:57 26.15333 -80.29331 7288 ft 296 kts 281°
2026-05-08 04:58 26.16746 -80.37078 6879 ft 295 kts 283°
2026-05-08 04:58 26.18387 -80.45962 6230 ft 291 kts 281°
2026-05-08 04:58 26.18922 -80.50442 5856 ft 288 kts 276°
2026-05-08 04:58 26.18780 -80.52646 5711 ft 287 kts 254°
2026-05-08 04:59 26.17899 -80.54621 5594 ft 286 kts 230°
2026-05-08 04:59 26.16404 -80.56035 5462 ft 283 kts 206°
2026-05-08 04:59 26.14541 -80.56680 5351 ft 280 kts 183°
2026-05-08 04:59 26.12625 -80.56486 5214 ft 277 kts 161°
2026-05-08 05:00 26.10935 -80.55512 5111 ft 274 kts 139°
2026-05-08 05:00 26.09560 -80.54050 4996 ft 274 kts 130°
2026-05-08 05:00 26.08502 -80.52316 4975 ft 270 kts 113°
2026-05-08 05:00 26.07925 -80.50322 4870 ft 271 kts 97°
2026-05-08 05:01 26.07841 -80.48250 4707 ft 269 kts 89°
2026-05-08 05:01 26.07842 -80.46172 4538 ft 266 kts 89°
2026-05-08 05:01 26.07835 -80.44169 4388 ft 258 kts 89°
2026-05-08 05:01 26.07826 -80.42180 4218 ft 249 kts 89°
2026-05-08 05:02 26.07811 -80.40313 4079 ft 240 kts 90°
2026-05-08 05:02 26.07797 -80.38501 3898 ft 230 kts 90°
2026-05-08 05:02 26.07789 -80.36731 3560 ft 228 kts 90°
2026-05-08 05:02 26.07782 -80.34980 3260 ft 224 kts 90°
2026-05-08 05:03 26.07775 -80.33262 2968 ft 218 kts 90°
2026-05-08 05:03 26.07769 -80.31637 2634 ft 202 kts 91°
2026-05-08 05:03 26.07762 -80.30132 2318 ft 187 kts 91°
2026-05-08 05:03 26.07756 -80.28741 2074 ft 172 kts 92°
2026-05-08 05:04 26.07750 -80.27455 1858 ft 163 kts 92°
2026-05-08 05:04 26.07744 -80.26213 1641 ft 159 kts 93°
2026-05-08 05:04 26.07738 -80.24994 1437 ft 157 kts 92°
2026-05-08 05:04 26.07732 -80.23796 1251 ft 150 kts 92°
2026-05-08 05:05 26.07726 -80.22648 1029 ft 147 kts 92°
2026-05-08 05:05 26.07720 -80.21521 861 ft 145 kts 92°
2026-05-08 05:05 26.07714 -80.20396 695 ft 146 kts 92°
2026-05-08 05:05 26.07708 -80.19268 527 ft 146 kts 92°
2026-05-08 05:06 26.07701 -80.18132 319 ft 147 kts 92°
2026-05-08 05:06 26.07699 -80.16998 114 ft 145 kts 92°
2026-05-08 05:06 26.07687 -80.15896 28 ft 132 kts 93°
2026-05-08 05:06 26.07680 -80.15012 17 ft 78 kts 89°
2026-05-08 05:07 26.07667 -80.14705 19 ft 25 kts 106°
2026-05-08 05:07 26.07593 -80.14593 18 ft 16 kts 193°
2026-05-08 05:07 26.07561 -80.14703 17 ft 16 kts 268°
2026-05-08 05:07 26.07558 -80.14809 16 ft 14 kts 256°
2026-05-08 05:08 26.07494 -80.14890 16 ft 14 kts 226°
2026-05-08 05:08 26.07413 -80.14939 16 ft 14 kts 162°
2026-05-08 05:08 26.07344 -80.14862 16 ft 14 kts 153°
2026-05-08 05:08 26.07261 -80.14811 16 ft 15 kts 120°
2026-05-08 05:09 26.07181 -80.14743 16 ft 12 kts 160°
2026-05-08 05:09 26.07151 -80.14731 16 ft 0 kts 161°